• In Romania
  • List of Countries
  • For 7 days
  • Water Temperature
  • Satellite Maps
  • Weather Map
  • Weather Widgets
  • user-avatar
    Login

    Hourly Weather Batina

    Today, 26 March, Sunday

    Time Temperature Precipitation Wind Pressure Humidity
    00:00 +8°C° 0 mm 0 mps 672 mmHg 64%
    01:00 +9°C° 0 mm 1 mps 672 mmHg 61%
    02:00 +9°C° 0 mm 1 mps 672 mmHg 58%
    03:00 +9°C° 0 mm 1 mps 671 mmHg 55%
    04:00 +9°C° 0 mm 1 mps 671 mmHg 53%
    05:00 +9°C° 0 mm 1 mps 671 mmHg 51%
    06:00 +9°C° 0 mm 1 mps 671 mmHg 50%
    07:00 +11°C° 0 mm 1 mps 672 mmHg 41%
    08:00 +14°C° 0 mm 1 mps 672 mmHg 31%
    09:00 +18°C° 0 mm 1 mps 673 mmHg 22%
    10:00 +19°C° 0 mm 1 mps 673 mmHg 19%
    11:00 +20°C° 0 mm 1 mps 673 mmHg 17%
    12:00 +21°C° 0 mm 2 mps 673 mmHg 14%
    13:00 +21°C° 0 mm 2 mps 673 mmHg 14%
    14:00 +21°C° 0 mm 2 mps 673 mmHg 14%
    15:00 +21°C° 0 mm 2 mps 673 mmHg 15%
    16:00 +19°C° 0 mm 2 mps 672 mmHg 20%
    17:00 +16°C° 0 mm 2 mps 671 mmHg 26%
    18:00 +14°C° 0 mm 2 mps 671 mmHg 31%
    19:00 +13°C° 0 mm 2 mps 671 mmHg 37%
    20:00 +12°C° 0 mm 1 mps 671 mmHg 44%
    21:00 +11°C° 0 mm 1 mps 671 mmHg 50%
    22:00 +10°C° 0 mm 1 mps 671 mmHg 53%
    23:00 +10°C° 0 mm 1 mps 671 mmHg 55%

    Tomorrow, 27 March, Monday

    Time Temperature Precipitation Wind Pressure Humidity
    00:00 +9°C° 0 mm 1 mps 670 mmHg 58%
    01:00 +9°C° 0 mm 1 mps 670 mmHg 58%
    02:00 +9°C° 0 mm 1 mps 670 mmHg 59%
    03:00 +8°C° 0 mm 1 mps 670 mmHg 60%
    04:00 +8°C° 0 mm 1 mps 670 mmHg 58%
    05:00 +9°C° 0 mm 1 mps 670 mmHg 57%
    06:00 +9°C° 0 mm 1 mps 670 mmHg 55%
    07:00 +12°C° 0 mm 2 mps 671 mmHg 47%
    08:00 +15°C° 0 mm 2 mps 672 mmHg 38%
    09:00 +18°C° 0 mm 3 mps 674 mmHg 30%
    10:00 +19°C° 0 mm 3 mps 674 mmHg 29%
    11:00 +20°C° 0 mm 4 mps 674 mmHg 28%
    12:00 +21°C° 0 mm 4 mps 674 mmHg 27%
    13:00 +21°C° 0 mm 4 mps 674 mmHg 27%
    14:00 +21°C° 0 mm 4 mps 674 mmHg 27%
    15:00 +21°C° 0 mm 4 mps 673 mmHg 27%
    16:00 +19°C° 0 mm 3 mps 673 mmHg 35%
    17:00 +17°C° 0 mm 3 mps 673 mmHg 43%
    18:00 +14°C° 0 mm 2 mps 672 mmHg 51%
    19:00 +13°C° 0 mm 2 mps 673 mmHg 59%
    20:00 +12°C° 0 mm 2 mps 673 mmHg 66%
    21:00 +10°C° 0 mm 2 mps 673 mmHg 74%
    22:00 +9°C° 0 mm 2 mps 673 mmHg 77%
    23:00 +8°C° 0 mm 2 mps 673 mmHg 81%

    Day after tomorrow, 28 March, Tuesday

    Time Temperature Precipitation Wind Pressure Humidity
    00:00 +8°C° 0 mm 2 mps 673 mmHg 84%
    01:00 +7°C° 0 mm 2 mps 673 mmHg 84%
    02:00 +7°C° 0 mm 2 mps 673 mmHg 84%
    03:00 +8°C° 0 mm 1 mps 672 mmHg 84%
    04:00 +8°C° 0 mm 1 mps 672 mmHg 82%
    05:00 +8°C° 0 mm 1 mps 673 mmHg 81%
    06:00 +8°C° 0 mm 1 mps 673 mmHg 80%
    07:00 +10°C° 0 mm 1 mps 674 mmHg 68%
    08:00 +13°C° 0 mm 1 mps 674 mmHg 56%
    09:00 +15°C° 0 mm 2 mps 675 mmHg 44%
    10:00 +17°C° 0 mm 2 mps 675 mmHg 37%
    11:00 +18°C° 0 mm 3 mps 676 mmHg 30%
    12:00 +19°C° 0 mm 3 mps 676 mmHg 24%
    13:00 +19°C° 0 mm 4 mps 675 mmHg 23%
    14:00 +19°C° 0 mm 5 mps 675 mmHg 23%
    15:00 +19°C° 0 mm 5 mps 675 mmHg 22%
    16:00 +16°C° 0 mm 5 mps 675 mmHg 30%
    17:00 +14°C° 0 mm 4 mps 674 mmHg 37%
    18:00 +12°C° 0 mm 4 mps 674 mmHg 45%
    19:00 +10°C° 0 mm 4 mps 674 mmHg 53%
    20:00 +9°C° 0 mm 3 mps 675 mmHg 61%
    21:00 +7°C° 0 mm 2 mps 675 mmHg 69%
    22:00 +7°C° 0 mm 2 mps 675 mmHg 70%
    23:00 +7°C° 0 mm 2 mps 674 mmHg 72%

    29 March, Wednesday

    Time Temperature Precipitation Wind Pressure Humidity
    00:00 +6°C° 0 mm 2 mps 674 mmHg 73%
    01:00 +6°C° 0 mm 2 mps 674 mmHg 75%
    02:00 +5°C° 0 mm 2 mps 674 mmHg 77%
    03:00 +5°C° 0 mm 2 mps 674 mmHg 80%
    04:00 +5°C° 0 mm 2 mps 674 mmHg 81%
    05:00 +5°C° 0 mm 2 mps 674 mmHg 83%
    06:00 +6°C° 0 mm 1 mps 674 mmHg 85%
    07:00 +7°C° 0 mm 2 mps 675 mmHg 73%
    08:00 +9°C° 0 mm 2 mps 676 mmHg 61%
    09:00 +10°C° 0 mm 2 mps 676 mmHg 49%
    10:00 +13°C° 0 mm 2 mps 677 mmHg 42%
    11:00 +13°C° 0 mm 3 mps 677 mmHg 36%
    12:00 +14°C° 0 mm 3 mps 677 mmHg 29%
    13:00 +16°C° 0 mm 3 mps 676 mmHg 28%
    14:00 +15°C° 0 mm 4 mps 676 mmHg 28%
    15:00 +15°C° 0 mm 4 mps 676 mmHg 27%
    16:00 +14°C° 0 mm 4 mps 675 mmHg 35%
    17:00 +12°C° 0 mm 3 mps 675 mmHg 43%
    18:00 +10°C° 0 mm 3 mps 675 mmHg 50%
    19:00 +9°C° 0 mm 3 mps 675 mmHg 58%
    20:00 +8°C° 0 mm 2 mps 675 mmHg 66%
    21:00 +6°C° 0 mm 2 mps 675 mmHg 73%
    22:00 +6°C° 0 mm 2 mps 675 mmHg 76%
    23:00 +5°C° 0 mm 2 mps 675 mmHg 78%

    30 March, Thursday

    Time Temperature Precipitation Wind Pressure Humidity
    00:00 +6°C° 0 mm 1 mps 675 mmHg 81%
    01:00 +5°C° 0 mm 1 mps 675 mmHg 81%
    02:00 +5°C° 0 mm 1 mps 675 mmHg 82%
    03:00 +5°C° 0 mm 1 mps 674 mmHg 82%
    04:00 +5°C° 0 mm 1 mps 675 mmHg 82%
    05:00 +5°C° 0 mm 1 mps 675 mmHg 82%
    06:00 +5°C° 0 mm 1 mps 675 mmHg 82%
    07:00 +8°C° 0 mm 1 mps 676 mmHg 71%
    08:00 +11°C° 0 mm 1 mps 677 mmHg 59%
    09:00 +13°C° 0 mm 2 mps 678 mmHg 47%
    10:00 +15°C° 0 mm 2 mps 678 mmHg 42%
    11:00 +16°C° 0 mm 2 mps 678 mmHg 36%
    12:00 +17°C° 0 mm 2 mps 678 mmHg 31%
    13:00 +18°C° 0 mm 3 mps 678 mmHg 30%
    14:00 +18°C° 0 mm 3 mps 677 mmHg 29%
    15:00 +18°C° 0 mm 3 mps 677 mmHg 29%
    16:00 +16°C° 0 mm 2 mps 677 mmHg 36%
    17:00 +14°C° 0 mm 2 mps 676 mmHg 43%
    18:00 +12°C° 0 mm 2 mps 676 mmHg 50%
    19:00 +10°C° 0 mm 2 mps 676 mmHg 55%
    20:00 +10°C° 0 mm 1 mps 676 mmHg 60%
    21:00 +9°C° 0 mm 1 mps 676 mmHg 65%
    22:00 +9°C° 0 mm 1 mps 676 mmHg 66%
    23:00 +8°C° 0 mm 1 mps 676 mmHg 67%

    31 March, Friday

    Time Temperature Precipitation Wind Pressure Humidity
    00:00 +8°C° 0 mm 1 mps 675 mmHg 68%
    01:00 +7°C° 0 mm 2 mps 675 mmHg 67%
    02:00 +7°C° 0 mm 2 mps 675 mmHg 67%
    03:00 +6°C° 0 mm 2 mps 675 mmHg 67%
    04:00 +7°C° 0 mm 2 mps 675 mmHg 66%
    05:00 +7°C° 0 mm 2 mps 675 mmHg 65%
    06:00 +7°C° 0 mm 2 mps 675 mmHg 63%
    07:00 +10°C° 0 mm 3 mps 676 mmHg 53%
    08:00 +13°C° 0 mm 4 mps 677 mmHg 44%
    09:00 +16°C° 0 mm 5 mps 677 mmHg 34%
    10:00 +17°C° 0 mm 5 mps 677 mmHg 31%
    11:00 +19°C° 0 mm 5 mps 677 mmHg 28%
    12:00 +20°C° 0 mm 5 mps 677 mmHg 25%
    13:00 +20°C° 0 mm 5 mps 676 mmHg 25%
    14:00 +20°C° 0 mm 6 mps 676 mmHg 25%
    15:00 +20°C° 0 mm 6 mps 675 mmHg 25%
    16:00 +19°C° 0 mm 5 mps 675 mmHg 29%
    17:00 +17°C° 0 mm 4 mps 674 mmHg 33%
    18:00 +14°C° 0 mm 3 mps 674 mmHg 37%
    19:00 +13°C° 0 mm 3 mps 673 mmHg 41%
    20:00 +12°C° 0 mm 3 mps 673 mmHg 44%
    21:00 +12°C° 0 mm 2 mps 673 mmHg 47%
    22:00 +11°C° 0 mm 3 mps 673 mmHg 48%
    23:00 +10°C° 0 mm 3 mps 673 mmHg 48%
    Show more